Terug naar catalogus

STARLINK-36607

ActiefCommunicatieVLEO
NORAD 67620·PAYLOAD·🇺🇸 United States

Gelanceerd Jan 30, 2026 vanaf Cape Canaveral Space Force Station

Loading…

Volgende Passages (komende 24 uur)

TLE

VersSource: CelesTrak SupGP

Epoch: Sep 15, 2026, 03:12 UTC

1 67620C 26020D   26258.13381944  .00051275  00000+0  18570-2 0  2587
2 67620  43.0022 149.5539 0001296 273.5389 336.4987 15.27556093    19

Volg STARLINK-36607 in realtime met AllMySat

Download on the App Store